• In Deutschland
  • Länderverzeichnis
  • Für 7 Tage
  • Wassertemperatur
  • Satellitenkarten
  • Wetterkarte
  • Widgets
  • user-avatar
    Anmelden

    Stündliche Wetter Pforzheim

    Heute, 22 Oktober, Sonntag

    Zeit Temperatur Niederschläge Wind Luftdruck Luftfeuchtigkeit
    00:00 +11°C° 0,2 mm 4 m/S 739 mmHg 86%
    01:00 +11°C° 0,2 mm 4 m/S 740 mmHg 86%
    02:00 +10°C° 0 mm 4 m/S 739 mmHg 86%
    03:00 +10°C° 0 mm 4 m/S 739 mmHg 87%
    04:00 +8°C° 0 mm 4 m/S 739 mmHg 87%
    05:00 +8°C° 0 mm 4 m/S 739 mmHg 87%
    06:00 +7°C° 0 mm 4 m/S 739 mmHg 87%
    07:00 +7°C° 0 mm 4 m/S 739 mmHg 87%
    08:00 +8°C° 0 mm 5 m/S 739 mmHg 83%
    09:00 +8°C° 0 mm 5 m/S 739 mmHg 78%
    10:00 +9°C° 0 mm 6 m/S 739 mmHg 74%
    11:00 +9°C° 0,1 mm 6 m/S 739 mmHg 74%
    12:00 +9°C° 0,1 mm 6 m/S 739 mmHg 74%
    13:00 +9°C° 0,1 mm 6 m/S 739 mmHg 73%
    14:00 +9°C° 0,1 mm 5 m/S 739 mmHg 74%
    15:00 +9°C° 0,1 mm 5 m/S 739 mmHg 74%
    16:00 +9°C° 0,1 mm 5 m/S 739 mmHg 74%
    17:00 +8°C° 0,1 mm 4 m/S 739 mmHg 78%
    18:00 +8°C° 0,1 mm 4 m/S 740 mmHg 81%
    19:00 +7°C° 0,1 mm 4 m/S 740 mmHg 85%
    20:00 +7°C° 0 mm 4 m/S 740 mmHg 86%
    21:00 +6°C° 0 mm 4 m/S 741 mmHg 87%
    22:00 +6°C° 0 mm 4 m/S 741 mmHg 87%
    23:00 +6°C° 0 mm 4 m/S 741 mmHg 88%

    Morgen, 23 Oktober, Montag

    Zeit Temperatur Niederschläge Wind Luftdruck Luftfeuchtigkeit
    00:00 +7°C° 0 mm 3 m/S 741 mmHg 88%
    01:00 +5°C° 0 mm 3 m/S 741 mmHg 89%
    02:00 +7°C° 0 mm 3 m/S 741 mmHg 89%
    03:00 +6°C° 0 mm 4 m/S 741 mmHg 90%
    04:00 +6°C° 0 mm 4 m/S 741 mmHg 90%
    05:00 +6°C° 0 mm 4 m/S 742 mmHg 90%
    06:00 +6°C° 0 mm 4 m/S 742 mmHg 89%
    07:00 +6°C° 0 mm 4 m/S 742 mmHg 88%
    08:00 +7°C° 0,1 mm 4 m/S 742 mmHg 87%
    09:00 +7°C° 0,1 mm 4 m/S 743 mmHg 86%
    10:00 +8°C° 0,1 mm 4 m/S 743 mmHg 85%
    11:00 +8°C° 0,1 mm 4 m/S 743 mmHg 84%
    12:00 +10°C° 0,1 mm 4 m/S 743 mmHg 82%
    13:00 +10°C° 0,1 mm 4 m/S 743 mmHg 80%
    14:00 +10°C° 0,1 mm 4 m/S 743 mmHg 82%
    15:00 +10°C° 0,1 mm 4 m/S 743 mmHg 83%
    16:00 +10°C° 0,1 mm 4 m/S 744 mmHg 85%
    17:00 +10°C° 0,3 mm 3 m/S 744 mmHg 87%
    18:00 +9°C° 0,3 mm 3 m/S 744 mmHg 89%
    19:00 +9°C° 0,3 mm 3 m/S 744 mmHg 91%
    20:00 +9°C° 0,6 mm 3 m/S 744 mmHg 91%
    21:00 +9°C° 0,6 mm 3 m/S 744 mmHg 91%
    22:00 +9°C° 0,6 mm 3 m/S 744 mmHg 92%
    23:00 +9°C° 0,6 mm 3 m/S 744 mmHg 92%

    übermorgen, 24 Oktober, Dienstag

    Zeit Temperatur Niederschläge Wind Luftdruck Luftfeuchtigkeit
    00:00 +9°C° 0,6 mm 3 m/S 744 mmHg 92%
    01:00 +9°C° 0,6 mm 3 m/S 744 mmHg 92%
    02:00 +9°C° 0,2 mm 3 m/S 744 mmHg 92%
    03:00 +9°C° 0,2 mm 3 m/S 744 mmHg 92%
    04:00 +9°C° 0,2 mm 3 m/S 744 mmHg 92%
    05:00 +10°C° 0,4 mm 3 m/S 744 mmHg 93%
    06:00 +10°C° 0,4 mm 2 m/S 744 mmHg 93%
    07:00 +10°C° 0,4 mm 2 m/S 744 mmHg 93%
    08:00 +10°C° 0,3 mm 2 m/S 744 mmHg 93%
    09:00 +10°C° 0,3 mm 2 m/S 744 mmHg 92%
    10:00 +12°C° 0,3 mm 2 m/S 745 mmHg 92%
    11:00 +12°C° 0,1 mm 2 m/S 745 mmHg 90%
    12:00 +13°C° 0,1 mm 2 m/S 745 mmHg 89%
    13:00 +14°C° 0,1 mm 2 m/S 745 mmHg 87%
    14:00 +14°C° 0 mm 2 m/S 745 mmHg 87%
    15:00 +15°C° 0 mm 2 m/S 745 mmHg 87%
    16:00 +15°C° 0 mm 1 m/S 745 mmHg 86%
    17:00 +14°C° 0 mm 1 m/S 745 mmHg 89%
    18:00 +14°C° 0 mm 1 m/S 745 mmHg 91%
    19:00 +13°C° 0 mm 1 m/S 746 mmHg 93%
    20:00 +13°C° 0 mm 1 m/S 746 mmHg 93%
    21:00 +12°C° 0 mm 1 m/S 746 mmHg 94%
    22:00 +12°C° 0 mm 1 m/S 746 mmHg 94%
    23:00 +12°C° 0 mm 1 m/S 746 mmHg 94%

    25 Oktober, Mittwoch

    Zeit Temperatur Niederschläge Wind Luftdruck Luftfeuchtigkeit
    00:00 +12°C° 0 mm 1 m/S 746 mmHg 94%
    01:00 +11°C° 0 mm 1 m/S 746 mmHg 93%
    02:00 +11°C° 0 mm 1 m/S 745 mmHg 93%
    03:00 +11°C° 0 mm 1 m/S 745 mmHg 93%
    04:00 +11°C° 0 mm 1 m/S 745 mmHg 93%
    05:00 +11°C° 0 mm 1 m/S 745 mmHg 92%
    06:00 +11°C° 0 mm 1 m/S 745 mmHg 92%
    07:00 +10°C° 0 mm 1 m/S 745 mmHg 92%
    08:00 +12°C° 0 mm 1 m/S 745 mmHg 87%
    09:00 +14°C° 0 mm 1 m/S 745 mmHg 82%
    10:00 +15°C° 0 mm 1 m/S 745 mmHg 76%
    11:00 +18°C° 0 mm 1 m/S 745 mmHg 71%
    12:00 +19°C° 0 mm 1 m/S 745 mmHg 66%
    13:00 +20°C° 0 mm 1 m/S 745 mmHg 61%
    14:00 +20°C° 0 mm 1 m/S 745 mmHg 63%
    15:00 +20°C° 0 mm 1 m/S 745 mmHg 66%
    16:00 +18°C° 0 mm 0 m/S 745 mmHg 68%
    17:00 +18°C° 0 mm 1 m/S 745 mmHg 72%
    18:00 +16°C° 0 mm 1 m/S 745 mmHg 77%
    19:00 +14°C° 0 mm 1 m/S 745 mmHg 81%
    20:00 +14°C° 0 mm 1 m/S 745 mmHg 81%
    21:00 +13°C° 0 mm 1 m/S 745 mmHg 82%
    22:00 +13°C° 0 mm 1 m/S 746 mmHg 83%
    23:00 +13°C° 0 mm 1 m/S 746 mmHg 82%

    26 Oktober, Donnerstag

    Zeit Temperatur Niederschläge Wind Luftdruck Luftfeuchtigkeit
    00:00 +13°C° 0 mm 1 m/S 746 mmHg 82%
    01:00 +12°C° 0 mm 1 m/S 746 mmHg 82%
    02:00 +12°C° 0 mm 1 m/S 746 mmHg 82%
    03:00 +12°C° 0 mm 1 m/S 746 mmHg 81%
    04:00 +12°C° 0 mm 1 m/S 746 mmHg 81%
    05:00 +12°C° 0 mm 1 m/S 746 mmHg 80%
    06:00 +11°C° 0 mm 1 m/S 746 mmHg 80%
    07:00 +11°C° 0 mm 1 m/S 746 mmHg 79%
    08:00 +13°C° 0 mm 1 m/S 746 mmHg 74%
    09:00 +15°C° 0 mm 1 m/S 746 mmHg 68%
    10:00 +18°C° 0 mm 1 m/S 747 mmHg 62%
    11:00 +19°C° 0 mm 1 m/S 746 mmHg 59%
    12:00 +20°C° 0 mm 1 m/S 746 mmHg 56%
    13:00 +21°C° 0 mm 1 m/S 746 mmHg 52%
    14:00 +21°C° 0 mm 1 m/S 746 mmHg 56%
    15:00 +21°C° 0 mm 1 m/S 745 mmHg 60%
    16:00 +20°C° 0 mm 1 m/S 745 mmHg 64%
    17:00 +19°C° 0 mm 1 m/S 745 mmHg 69%
    18:00 +16°C° 0 mm 1 m/S 745 mmHg 73%
    19:00 +14°C° 0 mm 1 m/S 745 mmHg 78%
    20:00 +14°C° 0 mm 1 m/S 745 mmHg 79%
    21:00 +14°C° 0 mm 1 m/S 745 mmHg 80%
    22:00 +13°C° 0 mm 1 m/S 745 mmHg 81%
    23:00 +13°C° 0 mm 1 m/S 745 mmHg 83%

    27 Oktober, Freitag

    Zeit Temperatur Niederschläge Wind Luftdruck Luftfeuchtigkeit
    00:00 +13°C° 0 mm 1 m/S 744 mmHg 84%
    01:00 +13°C° 0 mm 1 m/S 744 mmHg 85%
    02:00 +13°C° 0 mm 2 m/S 744 mmHg 86%
    03:00 +12°C° 0 mm 2 m/S 744 mmHg 86%
    04:00 +12°C° 0 mm 2 m/S 743 mmHg 87%
    05:00 +12°C° 0 mm 2 m/S 743 mmHg 88%
    06:00 +12°C° 0 mm 2 m/S 743 mmHg 88%
    07:00 +12°C° 0 mm 2 m/S 743 mmHg 89%
    08:00 +12°C° 0 mm 3 m/S 744 mmHg 86%
    09:00 +13°C° 0 mm 3 m/S 744 mmHg 83%
    10:00 +14°C° 0 mm 4 m/S 744 mmHg 80%
    11:00 +15°C° 0 mm 4 m/S 744 mmHg 76%
    12:00 +15°C° 0 mm 4 m/S 744 mmHg 72%
    13:00 +17°C° 0 mm 4 m/S 744 mmHg 68%
    14:00 +17°C° 0 mm 4 m/S 744 mmHg 69%
    15:00 +17°C° 0 mm 3 m/S 743 mmHg 70%
    16:00 +16°C° 0 mm 3 m/S 743 mmHg 71%
    17:00 +15°C° 0 mm 2 m/S 743 mmHg 77%
    18:00 +14°C° 0 mm 2 m/S 743 mmHg 83%
    19:00 +13°C° 0 mm 2 m/S 743 mmHg 88%
    20:00 +12°C° 0 mm 1 m/S 744 mmHg 89%
    21:00 +12°C° 0 mm 1 m/S 744 mmHg 90%
    22:00 +12°C° 0 mm 1 m/S 744 mmHg 90%
    23:00 +12°C° 0 mm 1 m/S 744 mmHg 92%
    Mehr zeigen